Weather History for St. Johnsbury, VT

Change the Weather History Date:

Thursday, June 5, 2014

  Actual Average Record
Temperature  
Mean Temperature 61 °F 63 °F  
Max Temperature 72 °F 74 °F 101 °F (1919)
Min Temperature 50 °F 51 °F 30 °F (1910)
Degree Days  
Heating Degree Days 4    
Cooling Degree Days 0 2  
Month to date cooling degree days 6 8  
Year to date cooling degree days 10 26  
Since 1 June cooling degree days 6 8  
Growing Degree Days 10 (Base 50)    
Moisture  
Dew Point 52 °F    
Average Humidity 74    
Maximum Humidity 100    
Minimum Humidity 47    
Precipitation  
Precipitation 0.28 in 0.13 in 0.97 in (1942)
Month to date precipitation 0.28 0.63  
Year to date precipitation 15.98 14.04  
Sea Level Pressure  
Sea Level Pressure 29.69 in    
Wind  
Wind Speed - (North)    
Max Wind Speed -    
Max Gust Speed -    
T = Trace of Precipitation, MM = Missing Value Source: NWS Daily Summary

Daily Weather History Graph

Daily Weather History Graph

Search for Another Location

Airport:

Trip Planner

Search our weather history database for the weather conditions in past years. The results will help you decide how hot, cold, wet, or windy it might be!

Date:

Astronomy

Jun. 05, 2014 Rise Set
Actual Time 5:04 AM EDT 8:28 PM EDT
Civil Twilight 4:28 AM EDT 9:04 PM EDT
Nautical Twilight 3:41 AM EDT 9:52 PM EDT
Astronomical Twilight 2:42 AM EDT 10:51 PM EDT
Moon 12:31 PM EDT (6/5) 12:43 AM EDT (6/5)
Length of Visible Light 16h 35m
Length of Day
15h 23m
Waxing Crescent, 48% of the Moon is Illuminated
Jun 5
Waxing Crescent
Jun 5
First Quarter
Jun 13
Full
Jun 19
Last Quarter
Jun 27
New

Hourly Weather History & Observations

Time (EDT) Temp. Dew Point Humidity Pressure Visibility Wind Dir Wind Speed Gust Speed Precip Events Conditions
12:54 AM 57.9 °F 53.1 °F 84% 29.71 in - North - - N/A   Unknown
1:54 AM 55.0 °F 52.0 °F 89% 29.71 in - North - - N/A   Unknown
2:54 AM 54.0 °F 51.1 °F 90% 29.70 in - North - - N/A   Unknown
3:54 AM 52.0 °F 50.0 °F 93% 29.69 in - North - - N/A   Unknown
4:54 AM 50.0 °F 48.0 °F 93% 29.70 in - North - - N/A   Unknown
5:54 AM 50.0 °F 46.9 °F 89% 29.71 in - North - - N/A   Unknown
6:54 AM 52.0 °F 48.9 °F 89% 29.72 in - North - - N/A   Unknown
7:54 AM 54.0 °F 50.0 °F 86% 29.72 in - North - - N/A   Unknown
8:54 AM 59.0 °F 52.0 °F 78% 29.72 in - North - - N/A   Unknown
9:54 AM 62.1 °F 53.1 °F 72% 29.70 in - North - - N/A   Unknown
11:54 AM 68.0 °F 50.0 °F 52% 29.67 in - North - - N/A   Unknown
12:54 PM 69.1 °F 48.0 °F 47% 29.66 in - North - - N/A   Unknown
1:54 PM 70.0 °F 50.0 °F 49% 29.65 in - North - - N/A   Unknown
2:54 PM 70.0 °F 50.0 °F 49% 29.64 in - North - - N/A   Unknown
3:54 PM 71.1 °F 53.1 °F 53% 29.63 in - North - - N/A   Unknown
4:54 PM 69.1 °F 53.1 °F 57% 29.64 in - North - - N/A   Unknown
5:54 PM 59.0 °F 55.9 °F 90% 29.68 in - North - - 0.13 in   Unknown
6:54 PM 59.0 °F 57.0 °F 93% 29.68 in - North - - 0.04 in   Unknown
7:54 PM 59.0 °F 57.0 °F 93% 29.69 in - North - - N/A   Unknown
8:54 PM 57.9 °F 57.0 °F 97% 29.69 in - North - - 0.03 in   Unknown
9:54 PM 59.0 °F 57.0 °F 93% 29.70 in - North - - 0.06 in   Unknown
10:54 PM 57.9 °F 55.9 °F 93% 29.71 in - North - - 0.02 in   Unknown
11:54 PM 57.0 °F 55.0 °F 93% 29.72 in - North - - N/A   Unknown